Terug naar catalogus

HBTSS-SV1

ActiefMilitairVLEO
NORAD 58960·PAYLOAD·🇺🇸 United States

Gelanceerd Feb 14, 2024 vanaf Cape Canaveral Space Force Station

Loading…

Volgende Passages (komende 24 uur)

TLE

VersSource: Space-Track

Epoch: Sep 14, 2026, 13:42 UTC

1 58960U 24028F   26257.57137909  .00004624  00000-0  34154-3 0  9993
2 58960  39.9905 334.0272 0008875 112.3345 247.8391 15.03727572120605

Volg HBTSS-SV1 in realtime met AllMySat

Download on the App Store